Weather reports worldwide

Advertisment
Vlieland, Netherlands (6242): temperature & dewpoint: 20.10.2020 23:00:00 - 26.10.2020 23:00:00 (CET)Vlieland, Netherlands (6242): temperature 5cm: 20.10.2020 23:00:00 - 26.10.2020 23:00:00 (CET)Vlieland, Netherlands (6242): wind speed & gusts: 20.10.2020 23:00:00 - 26.10.2020 23:00:00 (CET)Vlieland, Netherlands (6242): wind direction: 20.10.2020 23:00:00 - 26.10.2020 23:00:00 (CET)Vlieland, Netherlands (6242): reduced air pressure: 20.10.2020 23:00:00 - 26.10.2020 23:00:00 (CET)Vlieland, Netherlands (6242): visibility: 20.10.2020 23:00:00 - 26.10.2020 23:00:00 (CET)
Date & Time tt [°C] td [°C] tt 5cm [°C] ff [km/h] ff [kn] fx [km/h] fx [kn] dd ppp [hPa] vv [km]
26.10.2020 23:00:00 12,0 8,0 10,4 34 18 - - W - 10
26.10.2020 22:00:00 9,8 7,9 8,9 24 13 32 18 S - 10
26.10.2020 21:00:00 9,9 8,3 9,5 28 15 40 21 S - 10
26.10.2020 20:00:00 9,9 8,0 9,2 42 23 58 31 SW - 9
26.10.2020 19:00:00 9,3 7,8 8,8 34 18 61 33 S 997,0 3,3
26.10.2020 18:00:00 10,9 9,4 10,5 34 18 47 25 SSW 995,9 5
26.10.2020 17:00:00 11,2 8,8 10,6 35 19 50 27 SSW 996,7 10
26.10.2020 16:00:00 10,1 8,0 9,6 35 19 72 39 SSW 996,6 10
26.10.2020 15:00:00 11,8 8,8 11,9 39 21 54 29 SSW 996,5 10
26.10.2020 14:00:00 12,0 8,5 11,9 41 22 54 29 SSW 996,8 10
26.10.2020 13:00:00 10,8 8,9 10,5 41 22 54 29 SSW 997,2 9
26.10.2020 12:00:00 10,1 8,5 9,6 37 20 54 29 S 997,2 10
26.10.2020 11:00:00 11,2 8,4 11,4 39 21 47 25 SSW 997,2 10
26.10.2020 10:00:00 11,0 8,0 11,9 39 21 50 27 SSW 997,0 10
26.10.2020 09:00:00 9,9 8,0 9,8 37 20 50 27 S 997,4 10
26.10.2020 08:00:00 9,4 8,2 9,0 31 17 43 23 S 997,2 10
26.10.2020 07:00:00 9,0 7,8 8,8 29 16 47 25 SSW 997,1 5
26.10.2020 06:00:00 9,6 8,3 9,2 37 20 50 27 S 996,6 10
26.10.2020 05:00:00 9,8 8,6 9,2 29 16 40 21 S 996,5 10
26.10.2020 04:00:00 10,1 9,1 9,7 31 17 40 21 S 996,7 10
26.10.2020 03:00:00 9,6 7,3 9,0 28 15 40 21 SSW 997,0 10
26.10.2020 02:00:00 10,3 8,6 10,0 28 15 40 21 SW 997,6 10
26.10.2020 01:00:00 10,1 8,9 9,5 26 14 40 21 S 997,8 10
26.10.2020 00:00:00 10,1 8,4 9,5 31 17 43 23 S 997,7 10
25.10.2020 23:00:00 9,9 8,1 9,4 29 16 40 21 S 997,8 10
25.10.2020 22:00:00 10,0 7,9 9,4 29 16 43 23 S 998,1 10
25.10.2020 21:00:00 10,2 7,7 9,5 34 18 40 21 S 998,0 10
25.10.2020 20:00:00 10,5 7,9 9,8 34 18 43 23 S 998,1 10
25.10.2020 19:00:00 10,8 8,4 10,1 31 17 40 21 S 998,3 10
25.10.2020 18:00:00 11,2 8,9 10,6 29 16 36 19 S 998,4 10
25.10.2020 17:00:00 11,6 8,8 11,2 28 15 36 19 S 997,9 10
25.10.2020 16:00:00 10,9 8,8 10,5 24 13 43 23 S 998,2 10
25.10.2020 15:00:00 11,6 9,7 11,4 31 17 50 27 SSW 998,4 10
25.10.2020 14:00:00 12,1 9,5 11,7 31 17 40 21 S 998,6 10
25.10.2020 13:00:00 9,8 7,0 9,2 24 13 61 33 WSW 999,2 10
25.10.2020 12:00:00 12,9 10,4 12,7 34 18 47 25 SSW 998,6 10
25.10.2020 11:00:00 13,0 8,3 12,5 41 22 50 27 SW 998,4 10
25.10.2020 10:00:00 13,1 10,8 12,5 41 22 58 31 SSW 998,4 10
25.10.2020 09:00:00 12,4 10,4 11,9 35 19 50 27 SSW 997,9 10
25.10.2020 08:00:00 12,2 11,1 11,8 37 20 50 27 SSW 997,6 10
25.10.2020 07:00:00 11,8 10,7 11,4 37 20 54 29 SSW 997,0 9
25.10.2020 06:00:00 11,8 10,7 11,5 46 25 58 31 SSW 997,0 7
25.10.2020 05:00:00 12,1 11,2 11,9 37 20 54 29 SSW 997,0 7
25.10.2020 04:00:00 12,4 11,3 12,0 52 28 76 41 SW 997,0 4,8
25.10.2020 03:00:00 15,6 11,4 15,2 59 32 79 43 SSW 996,1 10
25.10.2020 02:00:00 15,5 11,8 14,8 59 32 83 45 S 996,3 10
25.10.2020 01:00:00 - - - - - - - - - -
25.10.2020 00:00:00 15,1 12,0 14,7 52 28 72 39 S 998,1 10
24.10.2020 23:00:00 14,6 12,2 14,1 42 23 58 31 S 998,7 10
24.10.2020 22:00:00 14,2 12,0 13,9 39 21 54 29 S 999,4 10
24.10.2020 21:00:00 13,9 12,1 13,5 39 21 54 29 S 1000,2 10
24.10.2020 20:00:00 13,5 12,0 13,1 34 18 50 27 S 1001,1 10
24.10.2020 19:00:00 13,7 11,8 13,4 35 19 47 25 S 1001,9 10
24.10.2020 18:00:00 14,1 11,2 13,9 41 22 58 31 S 1003,0 10
24.10.2020 17:00:00 14,1 11,2 13,7 44 24 61 33 S 1003,6 10
24.10.2020 16:00:00 14,1 10,7 13,9 42 23 54 29 SSW 1004,5 10
24.10.2020 15:00:00 14,0 10,5 13,6 39 21 58 31 SSW 1005,5 10
24.10.2020 14:00:00 14,1 11,2 14,1 44 24 61 33 SSW 1006,1 10
24.10.2020 13:00:00 13,4 11,3 13,3 44 24 58 31 SSW 1006,6 10
24.10.2020 12:00:00 12,9 11,6 12,8 39 21 50 27 SSW 1007,1 10
24.10.2020 11:00:00 12,3 11,1 12,1 29 16 40 21 S 1007,1 10
24.10.2020 10:00:00 12,4 10,3 12,5 24 13 40 21 S 1007,5 10
24.10.2020 09:00:00 12,9 8,4 12,5 29 16 47 25 SW 1007,9 10
24.10.2020 08:00:00 11,9 6,9 10,7 41 22 50 27 SW 1008,1 10
24.10.2020 07:00:00 11,1 6,3 10,0 34 18 43 23 SW 1007,8 10
24.10.2020 06:00:00 11,5 6,1 10,3 35 19 43 23 WSW 1008,0 10
24.10.2020 05:00:00 11,6 7,8 10,4 22 12 32 18 WSW 1008,2 10
24.10.2020 04:00:00 12,1 7,5 10,8 22 12 32 18 WSW 1008,3 10
24.10.2020 03:00:00 11,7 7,5 10,6 26 14 32 18 W 1008,4 10
24.10.2020 02:00:00 12,2 8,5 11,4 28 15 36 19 W 1008,4 10
24.10.2020 01:00:00 12,2 9,5 11,3 31 17 47 25 W 1008,2 10
24.10.2020 00:00:00 13,0 10,5 12,1 39 21 58 31 W 1008,0 10
23.10.2020 23:00:00 13,2 11,6 12,5 34 18 47 25 WSW 1007,6 10
23.10.2020 22:00:00 14,0 12,7 13,7 31 17 40 21 SW 1007,2 9
23.10.2020 21:00:00 14,0 12,6 13,5 35 19 50 27 SW 1006,8 9
23.10.2020 20:00:00 14,0 12,4 13,7 42 23 54 29 SSW 1006,5 10
23.10.2020 19:00:00 13,7 12,4 13,5 31 17 43 23 SSW 1006,7 10
23.10.2020 18:00:00 13,7 12,4 13,4 29 16 40 21 SSW 1006,8 10
23.10.2020 17:00:00 13,8 12,2 13,5 34 18 43 23 SSW 1006,7 10
23.10.2020 16:00:00 14,1 11,9 14,0 41 22 50 27 SSW 1006,9 10
23.10.2020 15:00:00 15,9 11,8 16,4 34 18 43 23 SSW 1006,9 10
23.10.2020 14:00:00 14,5 12,3 15,2 18 10 29 16 SSE 1007,3 8
23.10.2020 13:00:00 13,7 11,7 14,9 22 12 32 18 S 1007,6 6
23.10.2020 12:00:00 12,0 11,3 12,7 26 14 32 18 S 1008,5 6
23.10.2020 11:00:00 11,6 11,5 12,2 22 12 32 18 S 1008,9 0,6
23.10.2020 10:00:00 10,8 10,6 11,3 24 13 32 18 S 1009,1 0,3
23.10.2020 09:00:00 11,6 10,8 12,1 16 9 22 12 S 1009,2 10
23.10.2020 08:00:00 11,2 10,3 10,9 15 8 22 12 S 1009,4 10
23.10.2020 07:00:00 11,3 10,3 10,9 16 9 22 12 S 1009,2 10
23.10.2020 06:00:00 10,8 8,8 10,2 13 7 18 10 S 1009,3 10
23.10.2020 05:00:00 11,0 7,3 9,7 16 9 25 14 WSW 1009,6 10
23.10.2020 04:00:00 11,7 7,3 10,3 21 11 32 18 WSW 1009,6 10
23.10.2020 03:00:00 12,1 7,2 10,8 26 14 32 18 WSW 1010,1 10
23.10.2020 02:00:00 11,9 7,3 10,4 28 15 32 18 W 1010,3 10
23.10.2020 01:00:00 12,0 7,4 10,7 29 16 43 23 W 1010,2 10
23.10.2020 00:00:00 12,4 7,7 11,4 39 21 47 25 W 1010,1 10
22.10.2020 23:00:00 12,6 8,6 11,6 34 18 47 25 W 1009,7 10
22.10.2020 22:00:00 12,9 9,9 11,7 29 16 47 25 W 1009,7 10
22.10.2020 21:00:00 13,4 9,3 12,4 39 21 50 27 W 1009,2 10
22.10.2020 20:00:00 13,7 10,1 12,6 37 20 47 25 WSW 1008,8 10
22.10.2020 19:00:00 14,0 12,4 13,4 39 21 50 27 SW 1008,3 10
22.10.2020 18:00:00 14,0 12,2 13,4 35 19 47 25 SW 1007,9 10
22.10.2020 17:00:00 14,0 12,4 13,7 39 21 58 31 SW 1007,8 9
22.10.2020 16:00:00 14,3 12,1 14,1 42 23 61 33 SW 1007,3 10
22.10.2020 15:00:00 14,9 12,4 14,4 44 24 54 29 SW 1007,0 10
22.10.2020 14:00:00 14,7 12,3 15,0 41 22 58 31 SW 1007,2 9
22.10.2020 13:00:00 15,5 11,5 16,8 48 26 58 31 SW 1007,2 10
22.10.2020 12:00:00 14,6 11,6 14,7 48 26 61 33 SW 1007,5 10
22.10.2020 11:00:00 15,2 11,4 16,1 46 25 58 31 SW 1007,3 10
22.10.2020 10:00:00 14,7 11,1 14,4 44 24 58 31 WSW 1007,2 10
22.10.2020 09:00:00 14,3 11,3 14,1 46 25 65 35 WSW 1006,8 10
22.10.2020 08:00:00 14,3 11,5 13,8 46 25 61 33 SW 1005,9 10
22.10.2020 07:00:00 14,1 11,9 13,7 44 24 54 29 SSW 1005,2 10
22.10.2020 06:00:00 13,7 11,3 13,0 41 22 54 29 SW 1005,1 10
22.10.2020 05:00:00 13,8 10,9 13,0 44 24 58 31 SW 1004,7 10
22.10.2020 04:00:00 14,6 13,2 14,2 39 21 54 29 SSW 1004,3 10
22.10.2020 03:00:00 14,2 13,0 13,6 41 22 47 25 SSW 1004,2 10
22.10.2020 02:00:00 14,2 13,1 13,7 31 17 43 23 SSW 1004,2 10
22.10.2020 01:00:00 14,2 13,1 13,9 35 19 43 23 SW 1003,8 10
22.10.2020 00:00:00 14,2 12,8 13,8 39 21 50 27 WSW 1003,2 10
21.10.2020 23:00:00 14,0 12,6 13,6 41 22 58 31 WSW 1002,1 10
21.10.2020 22:00:00 13,7 12,4 13,1 52 28 65 35 W 1000,6 10
21.10.2020 21:00:00 14,0 12,8 13,5 50 27 65 35 WSW 998,6 10
21.10.2020 20:00:00 14,3 13,9 14,1 52 28 79 43 WSW 996,8 2,5
21.10.2020 19:00:00 14,7 13,7 14,5 70 38 90 49 SW 995,4 3,9
21.10.2020 18:00:00 15,1 13,9 14,8 67 36 86 47 SW 994,2 7
21.10.2020 17:00:00 15,3 14,4 15,1 65 35 86 47 SSW 993,3 7
21.10.2020 16:00:00 16,1 13,7 14,1 39 21 68 37 S 993,2 10
21.10.2020 15:00:00 13,8 12,9 13,1 35 19 50 27 S 993,6 7
21.10.2020 14:00:00 12,8 11,9 12,5 39 21 50 27 SSE 994,3 10
21.10.2020 13:00:00 12,3 12,0 12,3 37 20 47 25 SSE 995,7 7
21.10.2020 12:00:00 12,0 11,7 12,1 39 21 47 25 SSE 997,2 4,5
21.10.2020 11:00:00 12,0 11,8 12,1 34 18 43 23 SSE 998,3 4,7
21.10.2020 10:00:00 12,0 11,8 12,0 31 17 40 21 SSE 999,5 2,5
21.10.2020 09:00:00 11,9 11,7 12,0 28 15 32 18 SSE 1000,3 2,8
21.10.2020 08:00:00 11,9 11,6 11,9 24 13 32 18 SSE 1000,7 3,7
21.10.2020 07:00:00 12,2 11,7 12,1 26 14 36 19 S 1001,3 7
21.10.2020 06:00:00 12,3 11,8 12,0 18 10 29 16 SSE 1001,6 8
21.10.2020 05:00:00 12,2 11,6 12,1 18 10 25 14 SSE 1002,0 7
21.10.2020 04:00:00 12,1 11,6 12,0 13 7 22 12 SSE 1002,6 5
21.10.2020 03:00:00 12,8 12,0 12,7 18 10 29 16 S 1003,0 7
21.10.2020 02:00:00 12,9 12,1 12,6 22 12 29 16 S 1003,7 7
21.10.2020 01:00:00 12,8 11,9 12,4 22 12 32 18 S 1004,1 7
21.10.2020 00:00:00 12,8 11,7 12,4 24 13 40 21 S 1004,3 10
20.10.2020 23:00:00 13,7 12,1 13,2 29 16 43 23 SSW 1004,4 10

tt = temperature
td = dewpoint
tt 5cm = temperature 5cm
ff = wind speed
fx = gusts
dd = wind direction
ppp = reduced air pressure
vv = visibility

Next stations